Terminal Aerodrome Forecast
Issued by NWS Wilmington, OH

Current Version | Previous Version | Graphics & Text | Print | Product List | Glossary On
Versions: 1 2 3 4 5 6 7 8 9 10 11 12 13 14 15 16 17 18 19 20 21 22 23
000
FTUS41 KILN 292300
TAFCVG
TAF
KCVG 292320Z 3000/3106 32005KT P6SM SCT050
     FM300800 33003KT P6SM FEW040
     FM301500 21004KT P6SM SCT035 BKN250
     FM310000 00000KT P6SM SCT035 BKN080=

USA.gov is the U.S. government's official web portal to all federal, state and local government web resources and services.